| time (UTC) | temp F | wind direction | speed MPH | gust MPH | rain 1hr in | rain 24hr in | rain mn in | humidity % | barometer mb |
| 20260901020053 | 80 | 0 | 1.0 | 6.0 | 0.00 | 0.00 | 0.00 | 36 | 1013.5 |
| 20260901020044 | 80 | 151 | 1.0 | 4.0 | 0.00 | 0.00 | 0.00 | 37 | 1009.1 |
| 20260901014601 | 81 | 148 | 1.0 | 6.0 | 0.00 | 0.00 | 0.00 | 36 | 1013.4 |
| 20260901014548 | 81 | 148 | 1.0 | 6.0 | 0.00 | 0.00 | 0.00 | 37 | 1008.8 |
| 20260901013112 | 82 | 202 | 1.0 | 6.0 | 0.00 | 0.00 | 0.00 | 34 | 1013.6 |
| 20260901013049 | 82 | 202 | 1.0 | 5.0 | 0.00 | 0.00 | 0.00 | 34 | 1009.0 |
| 20260901011612 | 83 | 131 | 1.0 | 5.0 | 0.00 | 0.00 | 0.00 | 31 | 1013.9 |
| 20260901011542 | 83 | 131 | 1.0 | 5.0 | 0.00 | 0.00 | 0.00 | 32 | 1009.2 |
| 20260901010111 | 84 | 165 | 3.0 | 8.0 | 0.00 | 0.00 | 0.00 | 32 | 1013.9 |
| 20260901010041 | 84 | 165 | 2.0 | 8.0 | 0.00 | 0.00 | 0.00 | 33 | 1009.2 |
| 20260901004600 | 85 | 149 | 2.0 | 7.0 | 0.00 | 0.00 | 0.00 | 29 | 1013.6 |
| 20260901004540 | 85 | 146 | 3.0 | 9.0 | 0.00 | 0.00 | 0.00 | 30 | 1008.9 |
| 20260901003059 | 85 | 201 | 1.0 | 10.0 | 0.00 | 0.00 | 0.00 | 28 | 1013.5 |
| 20260901003040 | 85 | 201 | 1.0 | 8.0 | 0.00 | 0.00 | 0.00 | 28 | 1008.9 |
| 20260901001604 | 86 | 189 | 0.0 | 11.0 | 0.00 | 0.00 | 0.00 | 26 | 1013.4 |
| 20260901001540 | 86 | 189 | 0.0 | 7.0 | 0.00 | 0.00 | 0.00 | 27 | 1008.9 |
| 20260901000104 | 87 | 126 | 3.0 | 11.0 | 0.00 | 0.00 | 0.00 | 25 | 1013.5 |
| 20260901000039 | 87 | 125 | 3.0 | 8.0 | 0.00 | 0.00 | 0.00 | 25 | 1008.8 |
| 20260831234602 | 88 | 171 | 2.0 | 12.0 | 0.00 | 0.00 | 0.00 | 26 | 1013.3 |
| 20260831234539 | 88 | 171 | 2.0 | 12.0 | 0.00 | 0.00 | 0.00 | 27 | 1008.8 |
| 20260831233106 | 90 | 215 | 4.0 | 12.0 | 0.00 | 0.00 | 0.00 | 24 | 1013.4 |
| 20260831233037 | 90 | 215 | 4.0 | 11.0 | 0.00 | 0.00 | 0.00 | 25 | 1008.8 |
| 20260831231600 | 90 | 194 | 2.0 | 8.0 | 0.00 | 0.00 | 0.00 | 23 | 1013.4 |
| 20260831231538 | 90 | 194 | 2.0 | 6.0 | 0.00 | 0.00 | 0.00 | 24 | 1008.9 |
| 20260831230117 | 91 | 244 | 2.0 | 8.0 | 0.00 | 0.00 | 0.00 | 19 | 1013.6 |
| 20260831230053 | 91 | 252 | 2.0 | 7.0 | 0.00 | 0.00 | 0.00 | 20 | 1009.1 |
| 20260831224600 | 92 | 160 | 2.0 | 8.0 | 0.00 | 0.00 | 0.00 | 19 | 1013.5 |
| 20260831224535 | 92 | 146 | 3.0 | 8.0 | 0.00 | 0.00 | 0.00 | 20 | 1009.2 |
| 20260831223059 | 92 | 162 | 2.0 | 7.0 | 0.00 | 0.00 | 0.00 | 19 | 1013.7 |
| 20260831223033 | 92 | 148 | 2.0 | 7.0 | 0.00 | 0.00 | 0.00 | 20 | 1009.2 |
| 20260831221610 | 93 | 218 | 2.0 | 7.0 | 0.00 | 0.00 | 0.00 | 19 | 1013.5 |
| 20260831221541 | 93 | 171 | 3.0 | 7.0 | 0.00 | 0.00 | 0.00 | 19 | 1009.3 |
| 20260831220057 | 93 | 191 | 1.0 | 8.0 | 0.00 | 0.00 | 0.00 | 22 | 1013.4 |
| 20260831220031 | 93 | 191 | 1.0 | 7.0 | 0.00 | 0.00 | 0.00 | 23 | 1009.4 |
| 20260831214612 | 92 | 200 | 2.0 | 9.0 | 0.00 | 0.00 | 0.00 | 24 | 1013.6 |
| 20260831214531 | 92 | 200 | 3.0 | 8.0 | 0.00 | 0.00 | 0.00 | 23 | 1009.7 |
| 20260831213058 | 92 | 213 | 1.0 | 7.0 | 0.00 | 0.00 | 0.00 | 27 | 1013.8 |
| 20260831213030 | 92 | 219 | 2.0 | 6.0 | 0.00 | 0.00 | 0.00 | 27 | 1009.8 |
| 20260831211608 | 92 | 205 | 2.0 | 10.0 | 0.00 | 0.00 | 0.00 | 27 | 1014.0 |
| 20260831211530 | 92 | 220 | 2.0 | 9.0 | 0.00 | 0.00 | 0.00 | 28 | 1009.9 |
| 20260831210100 | 93 | 138 | 3.0 | 9.0 | 0.00 | 0.00 | 0.00 | 22 | 1014.0 |
| 20260831210029 | 93 | 137 | 4.0 | 9.0 | 0.00 | 0.00 | 0.00 | 23 | 1010.2 |
| 20260831204556 | 93 | 229 | 2.0 | 8.0 | 0.00 | 0.00 | 0.00 | 24 | 1014.2 |
| 20260831204528 | 93 | 173 | 2.0 | 8.0 | 0.00 | 0.00 | 0.00 | 25 | 1010.3 |
| 20260831203108 | 93 | 225 | 0.0 | 8.0 | 0.00 | 0.00 | 0.00 | 29 | 1014.1 |
| 20260831203029 | 92 | 232 | 0.0 | 6.0 | 0.00 | 0.00 | 0.00 | 31 | 1010.3 |
| 20260831201556 | 93 | 221 | 1.0 | 6.0 | 0.00 | 0.00 | 0.00 | 28 | 1014.0 |
| 20260831201530 | 93 | 220 | 2.0 | 6.0 | 0.00 | 0.00 | 0.00 | 29 | 1010.2 |
| 20260831200107 | 92 | 187 | 0.0 | 5.0 | 0.00 | 0.00 | 0.00 | 29 | 1014.1 |
| 20260831200023 | 92 | 208 | 0.0 | 5.0 | 0.00 | 0.00 | 0.00 | 31 | 1010.3 |
| 20260831194614 | 90 | 214 | 2.0 | 6.0 | 0.00 | 0.00 | 0.00 | 31 | 1014.2 |
| 20260831194538 | 90 | 213 | 1.0 | 6.0 | 0.00 | 0.00 | 0.00 | 31 | 1010.4 |
| 20260831193056 | 90 | 194 | 2.0 | 6.0 | 0.00 | 0.00 | 0.00 | 29 | 1014.2 |
| 20260831193018 | 90 | 194 | 2.0 | 6.0 | 0.00 | 0.00 | 0.00 | 29 | 1010.6 |
| 20260831191555 | 90 | 133 | 2.0 | 8.0 | 0.00 | 0.00 | 0.00 | 27 | 1014.3 |
| 20260831191519 | 90 | 141 | 3.0 | 7.0 | 0.00 | 0.00 | 0.00 | 27 | 1010.7 |
| 20260831190108 | 89 | 142 | 1.0 | 5.0 | 0.00 | 0.00 | 0.00 | 32 | 1014.6 |
| 20260831190014 | 89 | 142 | 1.0 | 5.0 | 0.00 | 0.00 | 0.00 | 33 | 1010.7 |
| 20260831184605 | 88 | 130 | 2.0 | 8.0 | 0.00 | 0.00 | 0.00 | 33 | 1014.6 |
| 20260831184512 | 88 | 130 | 1.0 | 7.0 | 0.00 | 0.00 | 0.00 | 33 | 1010.7 |
| 20260831183101 | 87 | 221 | 1.0 | 8.0 | 0.00 | 0.00 | 0.00 | 37 | 1014.6 |
| 20260831183006 | 87 | 224 | 2.0 | 7.0 | 0.00 | 0.00 | 0.00 | 38 | 1010.8 |
| 20260831181559 | 86 | 0 | 2.0 | 5.0 | 0.00 | 0.00 | 0.00 | 40 | 1014.7 |
| 20260831181502 | 86 | 144 | 2.0 | 5.0 | 0.00 | 0.00 | 0.00 | 40 | 1010.7 |
| 20260831180100 | 85 | 171 | 2.0 | 7.0 | 0.00 | 0.00 | 0.00 | 44 | 1014.8 |
| 20260831180058 | 85 | 171 | 1.0 | 6.0 | 0.00 | 0.00 | 0.00 | 45 | 1010.8 |
| 20260831174600 | 84 | 189 | 1.0 | 4.0 | 0.00 | 0.00 | 0.00 | 43 | 1010.7 |
| 20260831173059 | 83 | 0 | 0.0 | 5.0 | 0.00 | 0.00 | 0.00 | 50 | 1014.8 |
| 20260831173050 | 83 | 195 | 0.0 | 5.0 | 0.00 | 0.00 | 0.00 | 51 | 1010.7 |
| 20260831171555 | 82 | 0 | 0.0 | 5.0 | 0.00 | 0.00 | 0.00 | 57 | 1014.8 |
| 20260831171547 | 82 | 159 | 0.0 | 4.0 | 0.00 | 0.00 | 0.00 | 58 | 1010.7 |
| 20260831170111 | 80 | 159 | 1.0 | 4.0 | 0.00 | 0.00 | 0.00 | 59 | 1010.7 |
| 20260831170052 | 80 | 159 | 1.0 | 5.0 | 0.00 | 0.00 | 0.00 | 58 | 1014.7 |
| 20260831164559 | 78 | 159 | 0.0 | 4.0 | 0.00 | 0.00 | 0.00 | 66 | 1014.6 |
| 20260831164537 | 78 | 159 | 0.0 | 3.0 | 0.00 | 0.00 | 0.00 | 67 | 1010.6 |
| 20260831163057 | 76 | 0 | 0.0 | 5.0 | 0.00 | 0.00 | 0.00 | 68 | 1014.5 |
| 20260831163036 | 76 | 159 | 0.0 | 4.0 | 0.00 | 0.00 | 0.00 | 69 | 1010.6 |
| 20260831161557 | 74 | 159 | 0.0 | 5.0 | 0.00 | 0.00 | 0.00 | 75 | 1014.5 |
| 20260831161527 | 74 | 159 | 0.0 | 4.0 | 0.00 | 0.00 | 0.00 | 75 | 1010.6 |
| 20260831160108 | 72 | 0 | 0.0 | 2.0 | 0.00 | 0.00 | 0.00 | 82 | 1014.4 |
| 20260831160030 | 72 | 159 | 0.0 | 2.0 | 0.00 | 0.00 | 0.00 | 83 | 1010.6 |
| 20260831154614 | 70 | 0 | 0.0 | 2.0 | 0.00 | 0.00 | 0.00 | 88 | 1014.6 |
| 20260831154520 | 70 | 159 | 0.0 | 2.0 | 0.00 | 0.00 | 0.00 | 89 | 1010.7 |
| 20260831153059 | 68 | 159 | 0.0 | 1.0 | 0.00 | 0.00 | 0.00 | 91 | 1014.5 |
| 20260831153016 | 68 | 159 | 0.0 | 1.0 | 0.00 | 0.00 | 0.00 | 92 | 1010.7 |
| 20260831151555 | 67 | 0 | 0.0 | 1.0 | 0.00 | 0.00 | 0.00 | 91 | 1014.4 |
| 20260831151517 | 67 | 159 | 0.0 | 1.0 | 0.00 | 0.00 | 0.00 | 92 | 1010.7 |
| 20260831150103 | 66 | 0 | 0.0 | 0.0 | 0.00 | 0.00 | 0.00 | 91 | 1014.3 |
| 20260831150014 | 66 | 159 | 0.0 | 0.0 | 0.00 | 0.00 | 0.00 | 92 | 1010.5 |
| 20260831144555 | 66 | 0 | 0.0 | 1.0 | 0.00 | 0.00 | 0.00 | 91 | 1014.1 |
| 20260831144521 | 66 | 159 | 0.0 | 1.0 | 0.00 | 0.00 | 0.00 | 91 | 1010.4 |
| 20260831143055 | 66 | 0 | 0.0 | 0.0 | 0.00 | 0.00 | 0.00 | 91 | 1014.0 |
| 20260831143005 | 66 | 159 | 0.0 | 0.0 | 0.00 | 0.00 | 0.00 | 91 | 1010.3 |
| 20260831141558 | 66 | 0 | 0.0 | 2.0 | 0.00 | 0.00 | 0.00 | 91 | 1013.9 |
| 20260831141510 | 66 | 159 | 0.0 | 2.0 | 0.00 | 0.00 | 0.00 | 91 | 1010.2 |
| 20260831140053 | 66 | 0 | 0.0 | 0.0 | 0.00 | 0.00 | 0.00 | 91 | 1013.6 |
| 20260831140001 | 66 | 159 | 0.0 | 0.0 | 0.00 | 0.00 | 0.00 | 91 | 1010.1 |
| 20260831134604 | 66 | 0 | 0.0 | 2.0 | 0.00 | 0.00 | 0.00 | 91 | 1013.4 |
| 20260831134559 | 66 | 159 | 0.0 | 2.0 | 0.00 | 0.00 | 0.00 | 91 | 1009.8 |
| 20260831133103 | 66 | 0 | 0.0 | 0.0 | 0.00 | 0.00 | 0.00 | 91 | 1013.1 |
| 20260831133059 | 66 | 159 | 0.0 | 0.0 | 0.00 | 0.00 | 0.00 | 91 | 1009.6 |
| 20260831131557 | 65 | 159 | 0.0 | 1.0 | 0.00 | 0.00 | 0.00 | 91 | 1009.6 |
| 20260831131555 | 65 | 0 | 0.0 | 1.0 | 0.00 | 0.00 | 0.00 | 91 | 1013.0 |
| 20260831130101 | 66 | 0 | 0.0 | 1.0 | 0.00 | 0.00 | 0.00 | 90 | 1013.0 |
| 20260831130056 | 66 | 159 | 0.0 | 1.0 | 0.00 | 0.00 | 0.00 | 91 | 1009.6 |
| 20260831124559 | 66 | 0 | 0.0 | 0.0 | 0.00 | 0.00 | 0.00 | 90 | 1012.9 |
| 20260831124556 | 66 | 159 | 0.0 | 0.0 | 0.00 | 0.00 | 0.00 | 91 | 1009.5 |
| 20260831123057 | 66 | 0 | 0.0 | 2.0 | 0.00 | 0.00 | 0.00 | 90 | 1013.0 |
| 20260831123055 | 66 | 159 | 0.0 | 2.0 | 0.00 | 0.00 | 0.00 | 91 | 1009.5 |
| 20260831121609 | 66 | 159 | 0.0 | 5.0 | 0.00 | 0.00 | 0.00 | 90 | 1013.0 |
| 20260831121555 | 66 | 159 | 0.0 | 4.0 | 0.00 | 0.00 | 0.00 | 91 | 1009.5 |
| 20260831120108 | 66 | 0 | 0.0 | 4.0 | 0.00 | 0.00 | 0.00 | 90 | 1013.4 |
| 20260831120053 | 66 | 159 | 0.0 | 3.0 | 0.00 | 0.00 | 0.00 | 91 | 1009.6 |
| 20260831114600 | 66 | 159 | 0.0 | 0.0 | 0.00 | 0.00 | 0.00 | 90 | 1013.7 |
| 20260831114553 | 66 | 159 | 0.0 | 1.0 | 0.00 | 0.00 | 0.00 | 90 | 1009.6 |
| 20260831113106 | 66 | 0 | 0.0 | 1.0 | 0.00 | 0.00 | 0.00 | 90 | 1014.0 |
| 20260831113059 | 66 | 159 | 0.0 | 1.0 | 0.00 | 0.00 | 0.00 | 90 | 1009.6 |
| 20260831111610 | 66 | 0 | 0.0 | 2.0 | 0.00 | 0.00 | 0.00 | 89 | 1014.1 |
| 20260831111555 | 66 | 159 | 0.0 | 2.0 | 0.00 | 0.00 | 0.00 | 90 | 1009.6 |
| 20260831110104 | 66 | 0 | 0.0 | 2.0 | 0.00 | 0.00 | 0.00 | 89 | 1014.1 |
| 20260831110051 | 66 | 159 | 0.0 | 2.0 | 0.00 | 0.00 | 0.00 | 89 | 1009.7 |
| 20260831104603 | 66 | 0 | 0.0 | 2.0 | 0.00 | 0.00 | 0.00 | 88 | 1014.3 |
| 20260831104550 | 66 | 159 | 0.0 | 2.0 | 0.00 | 0.00 | 0.00 | 89 | 1009.7 |
| 20260831103107 | 66 | 0 | 0.0 | 4.0 | 0.00 | 0.00 | 0.00 | 87 | 1014.2 |
| 20260831103101 | 66 | 159 | 0.0 | 3.0 | 0.00 | 0.00 | 0.00 | 88 | 1009.6 |
| 20260831101557 | 66 | 0 | 0.0 | 1.0 | 0.00 | 0.00 | 0.00 | 86 | 1014.1 |
| 20260831101555 | 66 | 159 | 0.0 | 1.0 | 0.00 | 0.00 | 0.00 | 87 | 1009.5 |
| 20260831100108 | 66 | 0 | 0.0 | 0.0 | 0.00 | 0.00 | 0.00 | 85 | 1014.2 |
| 20260831100044 | 66 | 159 | 0.0 | 0.0 | 0.00 | 0.00 | 0.00 | 86 | 1009.6 |
| 20260831094604 | 66 | 0 | 0.0 | 0.0 | 0.00 | 0.00 | 0.00 | 85 | 1014.1 |
| 20260831094543 | 66 | 159 | 0.0 | 0.0 | 0.00 | 0.00 | 0.00 | 86 | 1009.5 |
| 20260831093109 | 67 | 0 | 0.0 | 0.0 | 0.00 | 0.00 | 0.00 | 85 | 1014.2 |
| 20260831093047 | 67 | 159 | 0.0 | 0.0 | 0.00 | 0.00 | 0.00 | 85 | 1009.4 |
| 20260831091605 | 67 | 0 | 0.0 | 0.0 | 0.00 | 0.00 | 0.00 | 84 | 1014.0 |
| 20260831091542 | 67 | 159 | 0.0 | 0.0 | 0.00 | 0.00 | 0.00 | 84 | 1009.2 |
| 20260831090058 | 67 | 0 | 0.0 | 0.0 | 0.00 | 0.00 | 0.00 | 83 | 1014.0 |
| 20260831090050 | 67 | 159 | 0.0 | 0.0 | 0.00 | 0.00 | 0.00 | 84 | 1009.2 |
| 20260831084609 | 67 | 0 | 0.0 | 0.0 | 0.00 | 0.00 | 0.00 | 83 | 1014.0 |
| 20260831084544 | 67 | 159 | 0.0 | 0.0 | 0.00 | 0.00 | 0.00 | 84 | 1009.3 |
| 20260831083100 | 68 | 0 | 0.0 | 0.0 | 0.00 | 0.00 | 0.00 | 83 | 1014.0 |
| 20260831083037 | 68 | 159 | 0.0 | 0.0 | 0.00 | 0.00 | 0.00 | 84 | 1009.5 |
| 20260831081605 | 68 | 0 | 0.0 | 0.0 | 0.00 | 0.00 | 0.00 | 83 | 1014.1 |
| 20260831081536 | 68 | 159 | 0.0 | 0.0 | 0.00 | 0.00 | 0.00 | 84 | 1009.5 |
| 20260831080135 | 68 | 0 | 0.0 | 1.0 | 0.00 | 0.00 | 0.00 | 83 | 1014.3 |
| 20260831080051 | 68 | 159 | 0.0 | 1.0 | 0.00 | 0.00 | 0.00 | 83 | 1009.6 |
| 20260831074601 | 68 | 0 | 0.0 | 1.0 | 0.00 | 0.00 | 0.00 | 82 | 1014.3 |
| 20260831074532 | 68 | 159 | 0.0 | 1.0 | 0.00 | 0.00 | 0.00 | 83 | 1009.5 |
| 20260831073113 | 68 | 0 | 0.0 | 2.0 | 0.00 | 0.00 | 0.00 | 82 | 1014.3 |
| 20260831073033 | 68 | 159 | 0.0 | 2.0 | 0.00 | 0.00 | 0.00 | 83 | 1009.5 |
| 20260831071602 | 69 | 0 | 0.0 | 0.0 | 0.00 | 0.00 | 0.00 | 80 | 1014.2 |
| 20260831071528 | 69 | 159 | 0.0 | 0.0 | 0.00 | 0.00 | 0.00 | 81 | 1009.5 |
| 20260831070100 | 69 | 0 | 0.0 | 2.0 | 0.00 | 0.00 | 0.00 | 80 | 1014.2 |
| 20260831070027 | 69 | 159 | 0.0 | 1.0 | 0.00 | 0.00 | 0.00 | 80 | 1009.4 |
| 20260831064608 | 69 | 0 | 0.0 | 1.0 | 0.00 | 0.00 | 0.00 | 79 | 1014.3 |
| 20260831064527 | 69 | 159 | 0.0 | 1.0 | 0.00 | 0.00 | 0.00 | 79 | 1009.4 |
| 20260831063101 | 69 | 0 | 0.0 | 2.0 | 0.00 | 0.00 | 0.00 | 77 | 1014.2 |
| 20260831063025 | 69 | 159 | 0.0 | 2.0 | 0.00 | 0.00 | 0.00 | 77 | 1009.4 |
| 20260831061647 | 70 | 0 | 0.0 | 2.0 | 0.00 | 0.00 | 0.00 | 76 | 1014.1 |
| 20260831061525 | 70 | 159 | 0.0 | 2.0 | 0.00 | 0.00 | 0.00 | 77 | 1009.3 |
| 20260831060100 | 70 | 0 | 0.0 | 2.0 | 0.00 | 0.00 | 0.00 | 75 | 1014.0 |
| 20260831060025 | 70 | 159 | 0.0 | 1.0 | 0.00 | 0.00 | 0.00 | 75 | 1009.3 |
| 20260831054604 | 70 | 0 | 0.0 | 1.0 | 0.00 | 0.00 | 0.00 | 76 | 1014.0 |
| 20260831054527 | 70 | 159 | 0.0 | 1.0 | 0.00 | 0.00 | 0.00 | 76 | 1009.3 |
| 20260831053102 | 71 | 0 | 0.0 | 4.0 | 0.00 | 0.00 | 0.00 | 76 | 1014.0 |
| 20260831053025 | 71 | 159 | 0.0 | 3.0 | 0.00 | 0.00 | 0.00 | 77 | 1009.2 |
| 20260831051558 | 71 | 0 | 0.0 | 3.0 | 0.00 | 0.00 | 0.00 | 75 | 1014.0 |
| 20260831051530 | 71 | 159 | 0.0 | 2.0 | 0.00 | 0.00 | 0.00 | 75 | 1009.2 |
| 20260831050101 | 71 | 0 | 0.0 | 4.0 | 0.00 | 0.00 | 0.00 | 74 | 1014.1 |
| 20260831050022 | 71 | 159 | 0.0 | 3.0 | 0.00 | 0.00 | 0.00 | 75 | 1009.1 |
| 20260831044606 | 72 | 159 | 0.0 | 4.0 | 0.00 | 0.00 | 0.00 | 73 | 1014.0 |
| 20260831044523 | 72 | 159 | 0.0 | 3.0 | 0.00 | 0.00 | 0.00 | 73 | 1008.9 |
| 20260831043059 | 73 | 159 | 0.0 | 4.0 | 0.00 | 0.00 | 0.00 | 72 | 1014.0 |
| 20260831043021 | 73 | 159 | 0.0 | 3.0 | 0.00 | 0.00 | 0.00 | 72 | 1008.9 |
| 20260831041608 | 73 | 159 | 0.0 | 5.0 | 0.00 | 0.00 | 0.00 | 70 | 1013.9 |
| 20260831041522 | 73 | 159 | 0.0 | 4.0 | 0.00 | 0.00 | 0.00 | 70 | 1008.8 |
| 20260831040111 | 74 | 159 | 0.0 | 4.0 | 0.00 | 0.00 | 0.00 | 68 | 1013.8 |
| 20260831040025 | 74 | 159 | 0.0 | 2.0 | 0.00 | 0.00 | 0.00 | 68 | 1008.7 |
| 20260831034604 | 75 | 0 | 0.0 | 5.0 | 0.00 | 0.00 | 0.00 | 67 | 1013.4 |
| 20260831034521 | 75 | 159 | 0.0 | 4.0 | 0.00 | 0.00 | 0.00 | 67 | 1008.3 |
| 20260831033059 | 75 | 0 | 0.0 | 5.0 | 0.00 | 0.00 | 0.00 | 66 | 1013.4 |
| 20260831033020 | 75 | 159 | 0.0 | 5.0 | 0.00 | 0.00 | 0.00 | 66 | 1008.2 |
| 20260831031555 | 76 | 206 | 0.0 | 6.0 | 0.00 | 0.00 | 0.00 | 63 | 1013.2 |
| 20260831031524 | 76 | 206 | 0.0 | 6.0 | 0.00 | 0.00 | 0.00 | 64 | 1008.1 |
| 20260831030019 | 78 | 221 | 0.0 | 3.0 | 0.00 | 0.00 | 0.00 | 61 | 1007.7 |
| 20260831024606 | 79 | 227 | 0.0 | 5.0 | 0.00 | 0.00 | 0.00 | 58 | 1012.7 |
| 20260831024519 | 79 | 227 | 0.0 | 5.0 | 0.00 | 0.00 | 0.00 | 59 | 1007.6 |
| 20260831023103 | 80 | 0 | 0.0 | 3.0 | 0.00 | 0.00 | 0.00 | 54 | 1012.5 |
| 20260831023017 | 80 | 182 | 0.0 | 3.0 | 0.00 | 0.00 | 0.00 | 54 | 1007.3 |
| 20260831021601 | 81 | 0 | 0.0 | 6.0 | 0.00 | 0.00 | 0.00 | 51 | 1012.4 |
| 20260831021517 | 81 | 163 | 0.0 | 5.0 | 0.00 | 0.00 | 0.00 | 52 | 1007.1 |